Weather History for BGTL - November, 2013

Change the Weather History Date:

Thursday, November 7, 2013

  Actual Average Record
Temperature  
Mean Temperature 8 °F -  
Max Temperature 13 °F 7 °F 28 °F (2000)
Min Temperature 3 °F -6 °F -19 °F (2011)
Degree Days  
Heating Degree Days 57    
Moisture  
Dew Point 3 °F    
Average Humidity 71    
Maximum Humidity 79    
Minimum Humidity 61    
Precipitation  
Precipitation 0.00 in 0.01 in - ()
Sea Level Pressure  
Sea Level Pressure 29.60 in    
Wind  
Wind Speed 13 mph ()    
Max Wind Speed 31 mph    
Max Gust Speed -    
Visibility 6.0 miles    
Events      
Averages and records for this station are not official NWS values.
T = Trace of Precipitation, MM = Missing Value Source: Averaged Metar Reports

Daily Weather History Graph

Daily Weather History Graph

Search for Another Location

Airport or City:

Trip Planner

Search our weather history database for the weather conditions in past years. The results will help you decide how hot, cold, wet, or windy it might be!

Date:

Astronomy

Dec. 31, 1969 Rise Set
Actual Time Sun does not rise Sun does not rise
Civil Twilight 9:37 AM AST 2:57 PM AST
Nautical Twilight 7:28 AM AST 5:07 PM AST
Astronomical Twilight 5:42 AM AST 6:51 PM AST
Moon No Moon Rise No Moon Set
Length of Visible Light 5h 20m
Length of Day
0h 00m
Waxing Crescent, 22% of the Moon is Illuminated
Nov 7
Waxing Crescent
Nov 10
First Quarter
Nov 17
Full
Nov 25
Last Quarter
Dec 2
New

Hourly Weather History & Observations

Time (AST) Temp. Windchill Dew Point Humidity Pressure Visibility Wind Dir Wind Speed Gust Speed Precip Events Conditions
12:58 AM 3.6 °F -10.9 °F -7.2 °F 61% 29.66 in 6.2 mi SE 9.2 mph - N/A   Partly Cloudy
1:58 AM 3.4 °F -13.6 °F -5.8 °F 66% 29.65 in 6.2 mi ESE 12.7 mph - N/A   Scattered Clouds
2:58 AM 5.9 °F -8.9 °F -2.6 °F 68% 29.63 in 6.2 mi East 10.4 mph - N/A   Overcast
3:58 AM 7.3 °F -6.2 °F 0.5 °F 74% 29.63 in 6.2 mi ESE 9.2 mph - N/A   Overcast
4:16 AM 8.6 °F -3.7 °F 1.4 °F 73% 29.66 in 6.2 mi ESE 8.1 mph - N/A   Overcast
4:58 AM 9.7 °F -2.4 °F 1.2 °F 69% 29.63 in 6.2 mi SE 8.1 mph - N/A   Overcast
5:18 AM 10.4 °F -1.5 °F -0.4 °F 62% 29.65 in 6.2 mi ESE 8.1 mph - N/A   Overcast
5:25 AM 8.6 °F -5.5 °F -0.4 °F 67% 29.65 in 6.2 mi ESE 10.4 mph - N/A   Overcast
5:58 AM 9.9 °F -4.0 °F 1.6 °F 69% 29.61 in 6.2 mi ESE 10.4 mph - N/A   Overcast
6:10 AM 10.4 °F -0.4 °F 1.4 °F 67% 29.65 in 6.2 mi East 6.9 mph - N/A   Overcast
6:58 AM 12.0 °F 2.7 °F 3.7 °F 69% 29.62 in 6.2 mi East 5.8 mph - N/A   Overcast
7:29 AM 10.4 °F -2.4 °F 3.2 °F 73% 29.64 in 6.2 mi ESE 9.2 mph - N/A   Overcast
7:58 AM 9.9 °F -4.7 °F 3.4 °F 75% 29.61 in 6.2 mi East 11.5 mph - N/A   Overcast
8:16 AM 8.6 °F -7.0 °F 3.2 °F 79% 29.64 in 6.2 mi East 12.7 mph - N/A   Overcast
8:58 AM 10.0 °F -2.9 °F 3.0 °F 73% 29.60 in 6.2 mi East 9.2 mph - N/A   Overcast
9:58 AM 11.8 °F 0.3 °F 4.5 °F 72% 29.59 in 6.2 mi East 8.1 mph - N/A   Overcast
10:20 AM 12.2 °F 0.7 °F 5.0 °F 73% 29.61 in 6.2 mi East 8.1 mph - N/A   Overcast
10:42 AM 12.2 °F 0.7 °F 5.0 °F 73% 29.61 in 6.2 mi ESE 8.1 mph - N/A   Overcast
10:58 AM 13.5 °F -3.2 °F 4.8 °F 68% 29.57 in 6.2 mi SSE 17.3 mph - N/A   Overcast
11:58 AM 12.6 °F -5.8 °F 2.8 °F 65% 29.58 in 6.2 mi SSE 20.7 mph - N/A   Overcast
12:15 PM 12.2 °F -5.8 °F 1.4 °F 62% 29.61 in 6.2 mi SSE 19.6 mph - N/A   Overcast
12:58 PM 11.8 °F -7.6 °F 1.0 °F 62% 29.57 in 6.2 mi SSE 23.0 mph - N/A   Overcast
1:58 PM 12.2 °F -8.6 °F 3.0 °F 67% 29.56 in 6.2 mi SSE 27.6 mph - N/A   Overcast
2:58 PM 12.4 °F -6.4 °F 3.0 °F 66% 29.57 in 6.2 mi SE 21.9 mph - N/A   Overcast
3:58 PM 12.4 °F -7.6 °F 3.4 °F 67% 29.56 in 6.2 mi SSE 25.3 mph - N/A   Scattered Clouds
4:58 PM 12.4 °F -6.0 °F 4.5 °F 71% 29.57 in 6.2 mi SE 20.7 mph - N/A   Partly Cloudy
5:58 PM 12.0 °F -9.2 °F 4.8 °F 73% 29.56 in 5.6 mi South 28.8 mph - N/A   Haze
6:58 PM 12.4 °F -6.4 °F 4.8 °F 72% 29.57 in 6.2 mi SSE 21.9 mph - N/A   Scattered Clouds
7:58 PM 11.7 °F -7.8 °F 4.5 °F 73% 29.56 in 5.6 mi SSE 23.0 mph - N/A   Haze
8:02 PM 12.2 °F -8.2 °F 5.0 °F 73% 29.59 in 5.6 mi SSE 26.5 mph - N/A   Haze
8:58 PM 10.8 °F -10.5 °F 4.5 °F 76% 29.55 in - South 27.6 mph - N/A   Haze
9:04 PM 10.4 °F -12.0 °F 5.0 °F 79% 29.58 in 2.5 mi South 31.1 mph - N/A   Haze
9:21 PM 10.4 °F -11.0 °F 5.0 °F 79% 29.58 in - South 27.6 mph - N/A   Haze
9:24 PM 10.4 °F -10.7 °F 5.0 °F 79% 29.58 in - South 26.5 mph - N/A   Haze
9:58 PM 10.9 °F -9.9 °F 4.3 °F 75% 29.55 in 5.0 mi South 26.5 mph - N/A   Haze
10:58 PM 11.1 °F -9.7 °F 2.8 °F 69% 29.55 in 6.2 mi SSE 26.5 mph - N/A   Scattered Clouds
11:58 PM 11.5 °F -9.2 °F 3.6 °F 71% 29.53 in 6.2 mi SSE 26.5 mph - N/A   Overcast